EW5998 Weather Reports


time (UTC)temp
C
wind
direction
speed
KPH
gust
KPH
rain 1hr
cm
rain 24hr
cm
rain mn
cm
humidity
%
barometer
mb
20260507015058 7 178 4.8 12.9 0.00 0.23 0.23 84 1009.3
20260507014854 7 224 4.8 12.9 0.00 0.23 0.23 82 1009.5
20260507005057 7 209 4.8 9.7 0.00 0.23 0.23 79 1009.2
20260507003500 8 198 3.2 11.3 0.00 0.23 0.23 77 1009.0
20260506235057 8 223 4.8 12.9 0.00 0.23 0.23 75 1009.0
20260506233440 8 252 4.8 12.9 0.00 0.23 0.23 72 1008.6
20260506230511 8 164 4.8 12.9 0.00 0.23 0.23 71 1008.5
20260506222058 9 205 3.2 9.7 0.00 0.23 0.23 71 1008.5
20260506220458 10 169 4.8 11.3 0.00 0.23 0.23 68 1008.4
20260506212054 10 212 3.2 12.9 0.00 0.23 0.23 67 1008.2
20260506205055 10 176 3.2 11.3 0.00 0.23 0.23 66 1008.2
20260506202055 11 139 4.8 11.3 0.00 0.23 0.23 67 1008.2
20260506195054 11 191 3.2 9.7 0.00 0.23 0.23 69 1008.4
20260506192055 10 152 3.2 8.0 0.00 0.23 0.23 72 1008.5
20260506185058 8 161 3.2 8.0 0.00 0.23 0.23 77 1008.7
20260506182055 8 158 1.6 4.8 0.00 0.23 0.23 80 1008.9
20260506175048 7 209 0.0 4.8 0.00 0.41 0.23 81 1009.1
20260506172049 7 264 0.0 6.4 0.00 0.41 0.23 81 1009.0
20260506165046 7 110 1.6 8.0 0.00 0.41 0.23 83 1008.7
20260506162047 6 101 3.2 8.0 0.00 0.41 0.23 83 1009.0
20260506160421 6 86 3.2 8.0 0.00 0.41 0.23 82 1009.1
20260506152046 6 133 1.6 4.8 0.00 0.41 0.23 82 1009.3
20260506145044 6 82 0.0 3.2 0.00 0.41 0.23 84 1009.4
20260506142047 5 82 1.6 4.8 0.03 0.41 0.23 85 1009.3
20260506135042 6 340 0.0 3.2 0.03 0.41 0.23 87 1009.4
20260506132042 5 22 0.0 8.0 0.00 0.38 0.20 90 1009.1
20260506130415 5 162 4.8 9.7 0.00 0.38 0.20 92 1009.1
20260506122044 5 152 4.8 9.7 0.00 0.38 0.20 92 1009.2
20260506115040 5 134 4.8 8.0 0.00 0.38 0.20 92 1009.2
20260506112038 5 165 0.0 11.3 0.00 0.38 0.20 91 1009.0
20260506105039 5 151 4.8 9.7 0.05 0.38 0.20 92 1008.8
20260506103420 5 139 1.6 4.8 0.08 0.38 0.20 91 1008.8
20260506095035 5 147 0.0 0.0 0.08 0.33 0.15 90 1009.2
20260506085031 5 139 3.2 8.0 0.08 0.25 0.08 89 1008.8
20260506082034 6 154 1.6 3.2 0.05 0.23 0.05 88 1009.3
20260506080413 6 233 1.6 6.4 0.00 0.18 0.00 87 1009.1
20260506072028 6 238 1.6 6.4 0.00 0.18 0.00 86 1009.1
20260506062026 6 147 0.0 6.4 0.00 0.23 0.00 84 1008.8
20260506045026 7 199 1.6 4.8 0.00 0.23 0.00 74 1009.2
20260506042026 7 213 0.0 3.2 0.00 0.23 0.00 67 1008.8
20260506035021 8 207 1.6 9.7 0.00 0.23 0.23 63 1008.8
20260506032029 8 167 3.2 11.3 0.00 0.23 0.23 62 1008.7
20260506030358 8 160 1.6 6.4 0.00 0.23 0.23 62 1008.7
20260506022021 8 167 0.0 6.4 0.00 0.23 0.23 61 1008.3